Regional Weather Roundup
Issued by NWS

Home | Current Version | Previous Version | Graphics & Text | Print | Product List | Glossary On
Versions: 1 2 3 4 5 6 7 8 9 10 11 12 13 14 15 16 17 18 19 20 21 22 23 24 25 26 27 28 29 30 31 32 33 34 35 36 37 38 39 40 41 42 43 44 45 46 47 48 49 50
000
ASUS45 KBOU 030807
RWRCO

WEATHER ROUNDUP FOR COLORADO
NATIONAL WEATHER SERVICE DENVER/BOULDER CO
200 AM MDT SUN MAY 03 2015

NOTE: "FAIR" INDICATES FEW OR NO CLOUDS BELOW 12000 FEET WITH NO
SIGNIFICANT WEATHER AND/OR OBSTRUCTIONS TO VISIBILITY.

COZ001>005-013-030-031-030900-
...NORTHWEST COLORADO...

CITY           SKY/WX    TMP DP  RH WIND       PRES   REMARKS
CRAIG          PTCLDY    40  35  83 CALM      30.03F
HAYDEN         PTCLDY    45  34  65 SE10      30.04F
MEEKER         MOCLDY    46  36  68 CALM      30.01F
MOUNT WERNER   NOT AVBL
STEAMBOAT SPGS PTCLDY    37  33  85 CALM      30.07S
WALDEN         CLOUDY    36  32  87 E5        30.11F
$$

COZ006>008-011-030900-
...WEST CENTRAL VALLEYS...

CITY           SKY/WX    TMP DP  RH WIND       PRES   REMARKS
GRAND JUNCTION PTCLDY    62  36  37 E5        29.92S
MONTROSE       MOCLDY    64  26  23 VRB5G20   30.00F
EAGLE          MOCLDY    43  37  81 CALM      30.13S
RIFLE          MOCLDY    52  37  56 E5        30.01F
DELTA          MOCLDY    63  34  34 NE9       29.98S
NUCLA          MOCLDY    64  28  25 S3        30.04S
$$

COZ017>023-064>068-030900-
...SOUTHWEST COLORADO...

CITY           SKY/WX    TMP DP  RH WIND       PRES   REMARKS
DURANGO        PTCLDY    44  34  67 CALM      30.10F
CORTEZ         CLEAR     47  33  58 E6        30.05S
PAGOSA SPRINGS PTCLDY    44  32  64 CALM      30.17S
TELLURIDE      MOCLDY    47  26  42 CALM      30.21F
WOLF CREEK PAS NOT AVBL
$$

COZ009-010-012-014-032>034-037-058>063-030900-
...CENTRAL COLORADO...

CITY           SKY/WX    TMP DP  RH WIND       PRES   REMARKS
ASPEN          PTCLDY    39  34  82 SW7       30.12F
BUENA VISTA    NOT AVBL
COPPER MTN     CLEAR     37  23  56 SW10      30.31S
BERTHOUD PASS  FAIR      32  23  69 W28       30.30F WCI  18
COTTONWOOD PAS PTCLDY    43  32  65 W6        30.22F
GUNNISON       PTCLDY    41  28  60 N9        30.17S
KREMMLING      MOCLDY    37  34  87 CALM      30.14S
LEADVILLE      PTCLDY    32  30  92 E6        30.22S WCI  26
MONARCH PASS   PTCLDY    32  28  86 SW15      30.41F WCI  22
SALIDA         PTCLDY    46  38  76 NW9       30.21F
SUNLIGHT       MOCLDY    41  28  60 SW3       30.28S
WILKERSON PASS MOCLDY    34  28  80 SW8       30.28F WCI  27
$$

COZ069>075-030900-
...SAN LUIS VALLEY/SANGRE DE CRISTO MOUNTAINS...

CITY           SKY/WX    TMP DP  RH WIND       PRES   REMARKS
ALAMOSA        MOCLDY    40  35  83 E5        30.14F
LA VETA PASS   MOCLDY    39  30  70 MISG      30.24F
SAGUACHE       MOCLDY    37  34  87 NW7       30.17S
$$

COZ035-036-038>040-030900-
...NORTHERN COLORADO FRONT RANGE...

CITY           SKY/WX    TMP DP  RH WIND       PRES   REMARKS
DENVER INTL AP MOCLDY    52  39  61 SW17      29.94F
DMNS CITY PARK   N/A     53  39  57 S7        29.93F
AURORA         MOCLDY    49  40  69 S12       29.96F
FRONT RANGE AP NOT AVBL
ERIE MUNI ARPT CLEAR     48  40  72 SW5       29.92F
BOULDER MUN AP CLEAR     59  32  36 CALM      29.93F
CENTENNIAL     PTCLDY    50  39  66 E6        29.97F
BROOMFIELD     CLEAR     52  36  54 W7        29.95F
FORT COLLINS   PTCLDY    55  39  54 S3        29.93F
LONGMONT       PTCLDY    51  38  60 SW3       29.94F
$$

COZ041-046-047-076>085-087-088-030900-
...PIKES PEAK/PALMER DIVIDE AND SOUTHERN FOOTHILLS...

CITY           SKY/WX    TMP DP  RH WIND       PRES   REMARKS
COLO. SPRINGS  MOCLDY    49  40  71 N7        30.03F
A. F. ACADEMY  CLOUDY    51  39  64 SE6       30.02F
ELLICOTT       MOCLDY   N/A N/A N/A CALM      30.02F
FALCON         MOCLDY    47  37  68 W7        30.06F
FORT CARSON    MOCLDY    52  40  62 SW5       29.99F
LIMON          PTCLDY    40  37  89 N7        29.96F
MONUMENT HILL  MOCLDY    50  34  53 SW6       30.03F
TRINIDAD       PTCLDY    47  38  71 W12       30.01F
$$

COZ042>045-048>051-090-091-030900-
...NORTHEAST COLORADO...

CITY           SKY/WX    TMP DP  RH WIND       PRES   REMARKS
GREELEY ARPT   PTCLDY    54  39  58 SW9       29.92F
AKRON          CLEAR     53  44  71 SW16      29.89F
BURLINGTON     MOCLDY    52  44  74 W10       29.88F
WRAY           PTCLDY    55  46  73 W12       29.85F
STERLING       CLEAR     52  45  76 S3        29.85F
HOLYOKE        NOT AVBL
FORT MORGAN    CLEAR     47 -15   7 W3        29.90F
$$

COZ086-089-092>099-030900-
...SOUTHEAST COLORADO...

CITY           SKY/WX    TMP DP  RH WIND       PRES   REMARKS
PUEBLO         PTCLDY    52  43  71 NE6       29.95F
LA JUNTA       PTCLDY    56  43  61 MISG      29.92F
LAMAR          CLOUDY    56  49  77 SW8       29.87S
SPRINGFIELD      N/A     51  44  77 SW9       29.93F
$$


USA.gov is the U.S. government's official web portal to all federal, state and local government web resources and services.